Flag for Costa Rica Weather past 2 weeks in Liberia, Costa Rica

Now
72 °F

Passing clouds.


Feels Like: 74 °F
Forecast: 76 / 88 °F
Wind: No wind

Location: Juan Santamaria

Current Time: Jul 26, 2014 at 12:03:14 AM

Latest Report: Jul 25, 2014 at 11:00 PM


Visibility: N/A

Pressure: 30.04 "Hg

Humidity: 73%

Dew point: 63 °F

Location of LiberiaLocation

Historic Weather in Liberia — Graph

°F

Liberia temperature yesterday

Maximum temperature yesterday: 86 °F (at 12:00 PM)
Minimum temperature yesterday: 70 °F (at 4:00 AM)
Average temperature yesterday: 77 °F

Past Weeks' High & Low Weather Summary

 TemperatureHumidityPressure
High88 °F (Jul 14, 1:00 PM)94% (Jul 14, 5:00 PM)30.08 "Hg (Jul 14, 5:00 PM)
Low66 °F (Jul 13, 1:00 AM)38% (Jul 24, 12:00 PM)29.89 "Hg (Jul 11, 3:00 AM)
Average75 °F68%29.99 "Hg
* Reported Jul 10 11:00 PM — Jul 25 11:00 PM, Liberia, Weather by CustomWeather, © 2014

Note: Actual official high and low records may vary slightly from our data, if they occured in-between our weather recording intervals... More about our weather records

Advertising

Liberia weather history for previous 24 hours

 ConditionsComfort  
Time TempWeatherWind HumidityBarometerVisibility
11:00 PM
Jul 25
72 °FPassing clouds.No wind73%30.04 "HgN/A
10:00 PM73 °FPassing clouds.8 mph69%30.03 "HgN/A
9:00 PM73 °FPassing clouds.12 mph69%30.03 "HgN/A
8:00 PM73 °FPartly cloudy.7 mph74%29.99 "HgN/A
7:00 PM73 °FPartly cloudy.2 mph78%30.00 "HgN/A
6:00 PM75 °FBroken clouds.3 mph65%29.99 "HgN/A
5:00 PM75 °FPartly sunny.8 mph65%29.97 "HgN/A
4:00 PM77 °FDrizzle. Partly sunny.9 mph61%29.93 "HgN/A
3:00 PM82 °FLight rain. Partly sunny.8 mph48%29.92 "HgN/A
2:00 PM86 °FBroken clouds.13 mph38%29.93 "HgN/A
1:00 PM86 °FPartly sunny.17 mph38%29.95 "HgN/A
12:00 PM86 °FPartly sunny.21 mph43%29.97 "HgN/A
11:00 AM82 °FPartly sunny.14 mph48%30.00 "HgN/A
10:00 AM81 °FPartly sunny.22 mph54%30.00 "HgN/A
9:00 AM81 °FBroken clouds.21 mph54%30.00 "HgN/A
8:00 AM79 °FPartly sunny.12 mph58%29.99 "HgN/A
7:00 AM75 °FBroken clouds.10 mph69%30.00 "HgN/A
6:00 AM73 °FPartly sunny.10 mph69%29.96 "HgN/A
5:00 AM73 °FClear.12 mph69%29.94 "Hg10 mi
4:00 AM70 °FClear.6 mph78%29.95 "Hg10 mi
3:00 AM73 °FClear.10 mph69%29.95 "Hg10 mi
2:00 AM73 °FClear.13 mph69%29.94 "Hg10 mi
1:00 AM72 °FClear.10 mph73%29.96 "Hg10 mi
12:00 AM72 °FClear.8 mph78%29.98 "Hg10 mi
Weather by CustomWeather, © 2014

See weather overviewHow to use our weather pages